sat.trackr.live / text

‹ back to catalog

STARLINK-32947

NORAD 63121 · 2025-039T

PAYLOAD ACTIVE UNKNOWN

§ Identity

Operator
Country
US
Launch date
2025-02-27
Launch site
AFETR
Launch vehicle
Mass (kg)
RCS (m²)

Purposes: comms

External: N2YO · Heavens-Above · Gunter

§ Orbital elements

Epoch: 2026-09-20T22:34:06.920832Z

Period
94.27 min
Inclination
43.0007°
Eccentricity
0.0001645
Mean motion
15.27590066 rev/d
Perigee alt
481.9 km
Apogee alt
484.1 km
Semi-major
6,861.2 km
B*
3.4298e-4
RAAN
349.6078°
Arg perigee
281.4183°
Mean anomaly
78.6483°
Rev number
8,793

§ Raw data

STARLINK-329471 63121U 25039T   26263.94035788  .00009191  00000+0  34298-3 0  99932 63121  43.0007 349.6078 0001645 281.4183  78.6483 15.27590066 87933

JSON: /api/v1/satellites/63121 · /tle

For live sub-satellite position, see the globe view (requires WebGL).

§ Visibility from observer

Set your observer location to see the next 7 days of passes ≥ 10°. The values pass through the URL so the page stays shareable.

No JS? Fill the form by hand. The geolocation button needs JavaScript.